GW4843 Weather Reports


time (UTC)temp
C
wind
direction
speed
KPH
gust
KPH
rain 1hr
cm
rain 24hr
cm
rain mn
cm
humidity
%
barometer
mb
20260503014204 18 164 0.0 0.0 0.00 0.00 0.00 34 1016.4
20260503013700 18 164 0.0 0.0 0.00 0.00 0.00 33 1016.1
20260503013158 18 165 0.0 0.0 0.00 0.00 0.00 33 1016.1
20260503012655 18 174 1.6 1.6 0.00 0.00 0.00 33 1016.4
20260503012152 19 219 3.2 4.8 0.00 0.00 0.00 33 1016.2
20260503011648 20 244 3.2 3.2 0.00 0.00 0.00 32 1016.2
20260503011146 20 180 0.0 0.0 0.00 0.00 0.00 30 1016.4
20260503010642 20 56 1.6 3.2 0.00 0.00 0.00 31 1016.6
20260503010139 18 108 0.0 0.0 0.00 0.00 0.00 32 1016.5
20260503005636 18 298 3.2 3.2 0.00 0.00 0.00 33 1016.6
20260503005133 18 324 1.6 1.6 0.00 0.00 0.00 33 1016.6
20260503004629 18 6 0.0 1.6 0.00 0.00 0.00 33 1016.6
20260503004128 18 343 0.0 0.0 0.00 0.00 0.00 32 1016.7
20260503003625 18 313 1.6 1.6 0.00 0.00 0.00 33 1016.7
20260503003122 19 346 3.2 3.2 0.00 0.00 0.00 33 1017.0
20260503002619 19 344 4.8 6.4 0.00 0.00 0.00 33 1016.9
20260503002115 19 18 1.6 1.6 0.00 0.00 0.00 32 1017.1
20260503001611 19 4 3.2 3.2 0.00 0.00 0.00 33 1017.0
20260503001109 19 341 1.6 1.6 0.00 0.00 0.00 32 1016.8
20260503000606 19 162 0.0 0.0 0.00 0.00 0.00 33 1016.9
20260503000103 18 144 0.0 0.0 0.00 0.00 0.00 33 1016.9
20260502235559 18 139 3.2 4.8 0.00 0.00 0.00 33 1017.2
20260502235058 18 178 0.0 0.0 0.00 0.00 0.00 35 1016.9
20260502234553 18 176 0.0 1.6 0.00 0.00 0.00 36 1017.0
20260502234051 19 130 1.6 3.2 0.00 0.00 0.00 34 1017.1
20260502233551 19 161 1.6 1.6 0.00 0.00 0.00 33 1017.2
20260502233049 19 178 0.0 0.0 0.00 0.00 0.00 33 1017.3
20260502232545 18 70 0.0 0.0 0.00 0.00 0.00 34 1017.4
20260502232042 19 70 3.2 4.8 0.00 0.00 0.00 33 1017.4
20260502231539 20 5 3.2 4.8 0.00 0.00 0.00 32 1017.4
20260502231037 20 331 11.3 12.9 0.00 0.00 0.00 33 1017.6
20260502230535 20 344 3.2 4.8 0.00 0.00 0.00 32 1017.2
20260502230033 20 239 4.8 4.8 0.00 0.00 0.00 33 1017.4
20260502225528 20 347 8.0 9.7 0.00 0.00 0.00 32 1017.6
20260502225026 19 359 4.8 6.4 0.00 0.00 0.00 33 1017.7
20260502224522 19 332 4.8 6.4 0.00 0.00 0.00 34 1017.8
20260502224019 18 316 4.8 6.4 0.00 0.00 0.00 35 1017.9
20260502223517 19 336 6.4 6.4 0.00 0.00 0.00 34 1018.2
20260502223015 19 312 6.4 9.7 0.00 0.00 0.00 33 1017.9
20260502222512 19 226 3.2 4.8 0.00 0.00 0.00 33 1018.1
20260502222008 19 270 3.2 3.2 0.00 0.00 0.00 34 1018.1
20260502221504 19 340 6.4 6.4 0.00 0.00 0.00 35 1018.2
20260502221001 19 272 4.8 6.4 0.00 0.00 0.00 34 1018.3
20260502220456 20 301 9.7 11.3 0.00 0.00 0.00 33 1018.4
20260502215953 20 343 8.0 9.7 0.00 0.00 0.00 33 1018.5
20260502215451 19 146 0.0 0.0 0.00 0.00 0.00 33 1018.5
20260502214948 19 243 3.2 4.8 0.00 0.00 0.00 34 1018.5
20260502214445 20 215 4.8 4.8 0.00 0.00 0.00 33 1018.4
20260502213942 20 300 6.4 9.7 0.00 0.00 0.00 34 1018.8
20260502213438 20 317 3.2 4.8 0.00 0.00 0.00 34 1019.0
20260502212937 20 94 0.0 1.6 0.00 0.00 0.00 32 1018.8
20260502212436 20 22 6.4 6.4 0.00 0.00 0.00 33 1019.2
20260502211932 20 340 12.9 14.5 0.00 0.00 0.00 34 1019.1
20260502211428 19 119 0.0 0.0 0.00 0.00 0.00 36 1019.2
20260502210926 19 213 8.0 9.7 0.00 0.00 0.00 34 1019.2
20260502210422 19 270 14.5 14.5 0.00 0.00 0.00 34 1019.2
20260502205920 19 9 6.4 6.4 0.00 0.00 0.00 35 1019.2
20260502205415 19 328 11.3 14.5 0.00 0.00 0.00 34 1019.2
20260502204913 19 343 6.4 6.4 0.00 0.00 0.00 35 1019.1
20260502204410 19 28 1.6 3.2 0.00 0.00 0.00 35 1019.3
20260502203908 20 336 6.4 9.7 0.00 0.00 0.00 34 1019.3
20260502203405 18 114 0.0 0.0 0.00 0.00 0.00 36 1019.4
20260502202900 18 20 3.2 6.4 0.00 0.00 0.00 38 1019.5
20260502202358 18 37 9.7 12.9 0.00 0.00 0.00 35 1019.6
20260502201856 19 274 9.7 11.3 0.00 0.00 0.00 36 1019.7
20260502201351 18 335 6.4 9.7 0.00 0.00 0.00 37 1019.6
20260502200848 17 35 9.7 11.3 0.00 0.00 0.00 38 1019.7
20260502200344 17 62 3.2 4.8 0.00 0.00 0.00 38 1019.9
20260502195842 17 350 8.0 9.7 0.00 0.00 0.00 38 1020.0
20260502195338 17 0 8.0 11.3 0.00 0.00 0.00 38 1020.1
20260502194835 17 28 9.7 11.3 0.00 0.00 0.00 37 1020.0
20260502194332 17 351 11.3 16.1 0.00 0.00 0.00 38 1020.0
20260502193828 18 20 9.7 14.5 0.00 0.00 0.00 36 1020.0
20260502193325 18 23 9.7 12.9 0.00 0.00 0.00 35 1020.0
20260502192821 18 3 11.3 12.9 0.00 0.00 0.00 37 1020.2
20260502192318 18 4 8.0 11.3 0.00 0.00 0.00 38 1020.1
20260502191815 17 355 8.0 11.3 0.00 0.00 0.00 38 1020.2
20260502191313 17 9 4.8 6.4 0.00 0.00 0.00 37 1020.2
20260502190810 17 359 6.4 9.7 0.00 0.00 0.00 36 1020.2
20260502190307 17 1 4.8 4.8 0.00 0.00 0.00 37 1020.3
20260502185802 17 26 6.4 6.4 0.00 0.00 0.00 37 1020.3
20260502185259 17 37 1.6 4.8 0.00 0.00 0.00 37 1020.3
20260502184755 18 284 4.8 4.8 0.00 0.00 0.00 36 1020.2
20260502184251 18 72 4.8 6.4 0.00 0.00 0.00 35 1020.2
20260502183748 17 222 3.2 4.8 0.00 0.00 0.00 37 1020.4
20260502183244 18 326 4.8 4.8 0.00 0.00 0.00 36 1020.3
20260502182739 18 46 3.2 4.8 0.00 0.00 0.00 36 1020.5
20260502182235 18 92 8.0 9.7 0.00 0.00 0.00 35 1020.5
20260502181732 18 125 6.4 9.7 0.00 0.00 0.00 36 1020.5
20260502181231 20 3 6.4 6.4 0.00 0.00 0.00 33 1020.5
20260502180728 19 11 9.7 12.9 0.00 0.00 0.00 34 1020.8
20260502180226 18 339 6.4 9.7 0.00 0.00 0.00 35 1020.7
20260502170150 18 282 3.2 3.2 0.00 0.00 0.00 37 1020.9
20260502164136 17 75 6.4 9.7 0.00 0.00 0.00 37 1020.8
20260502163632 17 37 8.0 11.3 0.00 0.00 0.00 38 1020.9
20260502163129 17 22 8.0 9.7 0.00 0.00 0.00 37 1021.2
20260502162626 17 72 3.2 4.8 0.00 0.00 0.00 38 1021.1
20260502162123 17 0 8.0 9.7 0.00 0.00 0.00 39 1020.9
20260502161620 17 335 4.8 4.8 0.00 0.00 0.00 39 1021.1
20260502161117 17 22 8.0 9.7 0.00 0.00 0.00 38 1021.2
20260502160615 17 28 6.4 6.4 0.00 0.00 0.00 38 1021.2
20260502160114 17 73 4.8 6.4 0.00 0.00 0.00 39 1021.3
20260502152028 15 71 4.8 9.7 0.00 0.00 0.00 41 1021.2
20260502151525 16 82 4.8 6.4 0.00 0.00 0.00 40 1021.2
20260502151022 15 105 3.2 3.2 0.00 0.00 0.00 41 1020.9
20260502150520 15 86 14.5 14.5 0.00 0.00 0.00 41 1020.8
20260502130404 10 355 4.8 6.4 0.00 0.00 0.00 53 1020.1
20260502123347 7 8 6.4 6.4 0.00 0.00 0.00 57 1019.9
20260502122844 7 0 4.8 6.4 0.00 0.00 0.00 57 1019.4
20260502122339 7 353 3.2 3.2 0.00 0.00 0.00 56 1019.4
20260502121838 8 5 6.4 6.4 0.00 0.00 0.00 56 1019.5
20260502121335 8 0 6.4 6.4 0.00 0.00 0.00 55 1019.5
20260502120833 8 5 6.4 6.4 0.00 0.00 0.00 54 1019.3
20260502120328 8 10 6.4 6.4 0.00 0.00 0.00 54 1019.3
20260502115826 8 359 8.0 11.3 0.00 0.00 0.00 53 1019.2
20260502115323 9 1 8.0 9.7 0.00 0.00 0.00 52 1019.1
20260502114820 9 350 9.7 11.3 0.00 0.00 0.00 51 1019.2
20260502114316 9 22 6.4 6.4 0.00 0.00 0.00 51 1019.0
20260502113813 8 357 6.4 6.4 0.00 0.00 0.00 51 1019.1
20260502113311 8 340 6.4 9.7 0.00 0.00 0.00 51 1019.0
20260502112809 9 310 6.4 9.7 0.00 0.00 0.00 50 1019.0
20260502112306 10 349 4.8 4.8 0.00 0.00 0.00 47 1018.8
20260502111803 8 49 9.7 12.9 0.00 0.00 0.00 51 1018.8
20260502111301 9 355 4.8 6.4 0.00 0.00 0.00 49 1018.7
20260502110758 9 340 4.8 4.8 0.00 0.00 0.00 48 1018.7
20260502110256 10 285 4.8 4.8 0.00 0.00 0.00 46 1018.4
20260502105754 10 325 3.2 4.8 0.00 0.00 0.00 46 1018.2
20260502105250 11 13 6.4 6.4 0.00 0.00 0.00 44 1018.2
20260502104748 10 40 11.3 14.5 0.00 0.00 0.00 46 1018.0
20260502104245 8 12 4.8 6.4 0.00 0.00 0.00 47 1018.1
20260502103742 7 300 4.8 4.8 0.00 0.00 0.00 49 1017.9
20260502103240 8 303 6.4 6.4 0.00 0.00 0.00 47 1018.0
20260502102737 8 327 1.6 3.2 0.00 0.00 0.00 46 1017.8
20260502102233 8 317 6.4 6.4 0.00 0.00 0.00 46 1017.9
20260502101731 8 352 3.2 3.2 0.00 0.00 0.00 45 1017.8
20260502101229 8 7 1.6 3.2 0.00 0.00 0.00 45 1017.7
20260502100727 8 303 4.8 4.8 0.00 0.00 0.00 45 1017.7
20260502100226 8 337 8.0 9.7 0.00 0.00 0.00 47 1017.8
20260502091159 5 306 4.8 4.8 0.00 0.00 0.00 51 1016.9
20260502090657 6 300 6.4 6.4 0.00 0.00 0.00 51 1017.2
20260502090154 6 320 6.4 6.4 0.00 0.00 0.00 49 1017.2
20260502071055 9 290 3.2 4.8 0.00 0.00 0.00 40 1016.5
20260502070553 8 299 4.8 4.8 0.00 0.00 0.00 41 1016.2
20260502070051 8 286 4.8 4.8 0.00 0.00 0.00 41 1016.4
20260502065549 7 285 6.4 6.4 0.00 0.00 0.00 41 1016.5
20260502065046 7 297 4.8 4.8 0.00 0.00 0.00 41 1016.6
20260502064545 7 284 3.2 3.2 0.00 0.00 0.00 42 1016.6
20260502064041 5 283 4.8 6.4 0.00 0.00 0.00 46 1016.7
20260502063539 5 298 3.2 3.2 0.00 0.00 0.00 46 1016.5
20260502063037 5 255 3.2 3.2 0.00 0.00 0.00 45 1016.5
20260502062534 5 274 6.4 6.4 0.00 0.00 0.00 45 1016.6
20260502062032 6 273 3.2 3.2 0.00 0.00 0.00 42 1016.6
20260502061530 7 280 4.8 4.8 0.00 0.00 0.00 40 1016.4
20260502061026 7 286 6.4 6.4 0.00 0.00 0.00 40 1016.2
20260502060521 7 305 3.2 4.8 0.00 0.00 0.00 40 1016.5
20260502060019 7 295 4.8 4.8 0.00 0.00 0.00 40 1016.4
20260502055516 6 285 6.4 6.4 0.00 0.00 0.00 41 1016.4
20260502055015 7 278 4.8 4.8 0.00 0.00 0.00 39 1016.2
20260502054513 8 276 3.2 3.2 0.00 0.00 0.00 38 1016.1
20260502054010 8 347 1.6 1.6 0.00 0.00 0.00 37 1016.4
20260502053507 8 279 1.6 1.6 0.00 0.00 0.00 37 1016.2
20260502053005 7 249 1.6 1.6 0.00 0.00 0.00 38 1016.0
20260502052502 8 205 0.0 0.0 0.00 0.00 0.00 38 1016.2
20260502052000 8 270 0.0 0.0 0.00 0.00 0.00 37 1016.2
20260502051458 10 274 3.2 3.2 0.00 0.00 0.00 35 1016.2
20260502050955 10 280 3.2 3.2 0.00 0.00 0.00 35 1016.1
20260502050451 8 1 3.2 3.2 0.00 0.00 0.00 36 1016.2
20260502045949 8 215 0.0 0.0 0.00 0.00 0.00 36 1016.2
20260502045446 10 254 3.2 3.2 0.00 0.00 0.00 33 1016.1
20260502044943 10 281 4.8 4.8 0.00 0.00 0.00 33 1016.1
20260502044438 10 294 3.2 4.8 0.00 0.00 0.00 32 1016.0
20260502043936 10 308 6.4 6.4 0.00 0.00 0.00 32 1015.9
20260502043433 10 320 4.8 4.8 0.00 0.00 0.00 32 1016.0
20260502042932 11 296 4.8 4.8 0.00 0.00 0.00 31 1016.0
20260502042430 10 333 4.8 4.8 0.00 0.00 0.00 31 1015.9
20260502041927 11 280 4.8 4.8 0.00 0.00 0.00 30 1015.9
20260502041425 11 334 4.8 4.8 0.00 0.00 0.00 31 1015.9
20260502040921 12 294 6.4 6.4 0.00 0.00 0.00 29 1015.8
20260502040418 12 315 6.4 6.4 0.00 0.00 0.00 28 1016.0
20260502035914 11 286 6.4 6.4 0.00 0.00 0.00 29 1015.8
20260502035411 11 296 6.4 6.4 0.00 0.00 0.00 29 1015.8
20260502034909 12 309 4.8 4.8 0.00 0.00 0.00 28 1015.7
20260502034407 12 299 6.4 6.4 0.00 0.00 0.00 27 1015.7
20260502033905 12 288 6.4 6.4 0.00 0.00 0.00 27 1015.7
20260502033402 12 301 4.8 4.8 0.00 0.00 0.00 27 1015.6
20260502032859 12 282 4.8 4.8 0.00 0.00 0.00 27 1015.6
20260502032355 13 297 4.8 6.4 0.00 0.00 0.00 27 1015.4
20260502031853 13 297 4.8 4.8 0.00 0.00 0.00 26 1015.5
20260502031351 13 302 6.4 6.4 0.00 0.00 0.00 26 1015.5
20260502030849 14 307 4.8 4.8 0.00 0.00 0.00 26 1015.5
20260502030347 14 312 6.4 6.4 0.00 0.00 0.00 26 1015.3
20260502025844 15 301 4.8 4.8 0.00 0.00 0.00 26 1015.2
20260502025341 15 304 6.4 6.4 0.00 0.00 0.00 26 1015.3
20260502024839 15 302 6.4 6.4 0.00 0.00 0.00 26 1015.3
20260502024337 16 283 6.4 6.4 0.00 0.00 0.00 26 1015.0
20260502023834 16 304 6.4 9.7 0.00 0.00 0.00 26 1015.2
20260502023332 15 287 6.4 6.4 0.00 0.00 0.00 26 1015.0
20260502022830 15 288 4.8 4.8 0.00 0.00 0.00 25 1015.0
20260502022326 15 250 6.4 6.4 0.00 0.00 0.00 25 1014.7
20260502021823 16 247 6.4 6.4 0.00 0.00 0.00 24 1014.8
20260502021320 17 241 6.4 6.4 0.00 0.00 0.00 23 1014.8
20260502020817 17 247 4.8 4.8 0.00 0.00 0.00 23 1014.8
20260502020315 18 250 4.8 4.8 0.00 0.00 0.00 22 1014.9
20260502015812 18 241 4.8 4.8 0.00 0.00 0.00 21 1014.7
20260502015308 19 251 4.8 4.8 0.00 0.00 0.00 21 1014.8
20260502014806 20 244 6.4 6.4 0.00 0.00 0.00 19 1014.7
20260502014302 21 249 4.8 6.4 0.00 0.00 0.00 19 1014.9